#timestamp,LO_Frequency,Hit,StdDev 
1554051615.6,286047002.7,N
1554051635.5,286046999.9,N
1554051655.3,286047001.6,N
1554051675.1,286047004.0,N
1554051695.9,286047002.0,N
1554051715.7,286047002.4,N
1554051735.6,286047000.3,N
1554051755.4,286046999.9,N
1554051775.2,286047001.1,N
1554051795.1,286047000.8,N
1554051796.0,286047000.8,N
1554051815.8,286047000.9,N
1554051835.6,286047002.6,N
1554051855.5,286047002.7,N
1554051875.3,286047001.5,N
1554051895.2,286047004.2,Y
1554051915.9,286047001.6,P
1554051935.7,286047002.5,P
1554051955.6,286047000.7,N
1554051975.4,286047001.0,N
1554051995.2,286047000.6,N
1554052015.1,286046999.9,N
1554052016.0,286046999.9,N
1554052035.8,286046999.9,N
1554052055.7,286046998.6,N
1554052075.5,286046996.6,Y
1554052095.3,286046996.7,P
1554052115.2,286046999.2,N
1554052135.0,286046998.2,N
1554052135.9,286046998.2,N
1554052155.8,286047000.9,N
1554052175.6,286047002.2,N
1554052195.4,286047001.8,N
1554052215.3,286047000.0,N
1554052235.1,286046998.7,N
1554052255.8,286046999.2,N
1554052275.7,286046999.5,N
1554052295.5,286046999.1,N
1554052315.4,286046998.1,N
1554052335.2,286047002.4,N
1554052355.0,286047002.1,N
1554052355.9,286047002.1,N
1554052375.8,286047001.3,N
1554052395.6,286047004.2,N
1554052415.4,286047003.6,N
1554052435.3,286047003.5,N
1554052455.1,286047004.2,N
1554052475.9,286047004.3,N
1554052495.7,286047005.3,N
1554052515.5,286047005.4,N
1554052535.4,286047005.5,N
1554052555.2,286047003.1,N
1554052575.0,286047004.3,N
1554052575.9,286047004.3,N
1554052595.8,286047004.4,N
1554052615.6,286047003.8,N
1554052635.5,286047003.8,N
1554052655.3,286047003.0,N
1554052675.1,286047003.4,N
1554052695.9,286047003.0,N
1554052715.7,286047004.3,N
1554052735.5,286047003.8,N
1554052755.4,286047002.9,N
1554052775.2,286047004.0,N
1554052795.1,286047004.0,N
1554052796.0,286047004.0,N
1554052815.8,286047000.6,N
1554052835.6,286047000.7,N
1554052855.5,286047001.9,N
1554052875.3,286047001.9,N
1554052895.2,286047000.0,N
1554052915.9,286047002.5,N
1554052935.7,286047002.6,N
1554052955.6,286046999.7,N
1554052975.4,286047000.8,N
1554052995.2,286046998.7,N
1554053015.1,286047002.0,N
1554053016.0,286047002.0,N
1554053035.8,286046999.8,N
1554053055.7,286047002.4,N
1554053075.5,286047002.3,N
1554053095.3,286047001.9,N
1554053115.2,286047003.0,N
1554053135.9,286047005.7,Y
1554053155.7,286047002.1,P
1554053175.6,286047002.2,P
1554053195.4,286047004.4,P
1554053215.3,286047001.5,N
1554053235.1,286047001.0,N
1554053236.0,286047001.0,N
1554053255.8,286046998.5,N
1554053275.7,286046998.7,N
1554053295.5,286046998.9,N
1554053315.3,286046998.9,N
1554053335.2,286046997.7,N
1554053355.0,286046997.7,N
1554053355.9,286046997.7,N
1554053375.8,286046997.2,N
1554053395.6,286046997.2,N
1554053415.4,286046997.3,N
1554053435.3,286046999.4,N
1554053455.1,286046999.5,N
1554053475.8,286046999.3,N
1554053495.7,286046998.4,N
1554053515.5,286047001.0,N
1554053535.4,286046999.8,N
1554053555.2,286047002.7,N
1554053575.1,286046998.5,N
1554053576.0,286046998.5,N
1554053595.8,286047000.9,N
1554053615.6,286047000.1,N
1554053635.5,286047000.6,N
1554053655.3,286047000.9,N
1554053675.1,286047000.6,N
1554053695.9,286047000.3,N
1554053715.7,286047002.1,N
1554053735.6,286047002.1,N
1554053755.4,286047000.7,N
1554053775.2,286047000.4,N
1554053795.1,286047002.3,N
1554053796.0,286047002.3,N
1554053815.8,286047001.2,N
1554053835.6,286046997.0,N
1554053855.5,286046997.7,N
1554053875.3,286046997.0,N
1554053895.2,286046996.5,N
1554053915.9,286046997.6,N
1554053935.7,286046996.8,N
1554053955.6,286046997.7,N
1554053975.4,286046999.5,N
1554053995.2,286046999.5,N
1554054015.1,286046999.4,N
1554054016.0,286046999.4,N
1554054035.8,286047000.7,N
1554054055.7,286047001.9,N
1554054075.5,286047001.4,N
1554054095.3,286047002.8,N
1554054115.2,286047000.1,N
1554054135.0,286046999.4,N
1554054135.9,286046999.4,N
1554054155.8,286046999.5,N
1554054175.6,286047001.2,N
1554054195.4,286046999.7,N
1554054215.3,286047002.3,N
1554054235.1,286047002.5,N
1554054255.8,286047003.5,N
1554054275.7,286047001.3,N
1554054295.5,286047001.6,N
1554054315.4,286047001.7,N
1554054335.2,286047000.1,N
1554054355.0,286047001.2,N
1554054355.9,286047001.2,N
1554054375.8,286047000.5,N
1554054395.6,286047001.0,N
1554054415.4,286046998.3,N
1554054435.3,286046998.3,N
1554054455.1,286046998.2,N
1554054475.9,286046998.5,N
1554054495.7,286047000.7,N
1554054515.5,286047000.8,N
1554054535.4,286046998.6,N
1554054555.2,286046999.3,N
1554054575.0,286046999.1,N
1554054575.9,286046999.1,N
1554054595.8,286046997.1,N
1554054615.6,286046997.7,N
1554054635.5,286046999.3,N
1554054655.3,286046999.4,N
1554054675.1,286046998.8,N
1554054695.9,286046998.3,N
1554054715.7,286046999.4,N
1554054735.6,286047001.1,N
1554054755.4,286047001.0,N
1554054775.2,286047000.8,N
1554054795.1,286047000.2,N
1554054796.0,286047000.2,N
1554054815.8,286046999.8,N
1554054835.6,286047002.7,N
1554054855.5,286047002.4,N
1554054875.3,286046999.7,N
1554054895.2,286047000.6,N
1554054915.9,286046998.1,N
1554054935.7,286046998.7,N
1554054955.6,286047001.2,N
1554054975.4,286047000.3,N
1554054995.2,286047001.0,N
1554055015.1,286047001.1,N
1554055016.0,286047001.1,N
1554055035.8,286046998.6,N
1554055055.7,286046996.6,N
1554055075.5,286046998.9,N
1554055095.3,286046998.5,N
1554055115.2,286046998.9,N
1554055135.0,286047001.1,N
1554055135.9,286047001.1,N
1554055155.7,286046998.7,N
1554055175.6,286046998.2,N
1554055195.4,286046998.2,N
